7 * 24
多渠道服务支持
STARLINK-32343 是 SpaceX Starlink 卫星互联网项目中的一颗低轨卫星,属于其第二代卫星星座计划的一部分。该卫星旨在为全球用户提供高速、低延迟的互联网服务,尤其在偏远和网络基础设施薄弱的地区。它运行在约 550 公里的轨道高度,配备先进通信设备,支持星间链路,提升网络效率。作为 Starlink 计划的扩展,该卫星有助于增强全球覆盖范围和网络稳定性。
美国
(US)
| 数据来源 | 国际轨道数据 |
| 星历时间: | 2025-12-18T21:23:54+0800 1天前 查看轨道信息 |
| 半长轴: | 6853.392km |
| 偏心率: | 0.0001192 |
| 轨道倾角: | 53.161° |
| 近地点辐角 | 75.551° |
| 升交点赤经 | 118.288° |
| 平近点角 | 284.563° |
| 近地点: | 474.44km |
| 远地点: | 476.074km |
| 周期: | 94.106分钟 |
| 每日圈数: | 15.301868 |